Temp
-10 -9 -10 -10 -9 -9 -9 -9 -9 -10 -10 -10 -11 -11 -11 -11 -11 -11 -11 -11 -11 -11 -11 -11 -11 -11 -11 -11 -11 -11 -12 -13 -13 -13 -13 -14 -14 -14 -14 -16 -17 -17 -18 -19
-10 -10 -10 -10 -10 -10 -10 -10 -10 -10 -10 -10 -11 -11 -11 -11 -11 -11 -11 -11 -11 -11 -11 -11 -11 -11 -11 -11 -11 -11 -12 -13 -13 -13 -13 -14 -14 -14 -16 -17 -18 -19 -20 -21
-11 -10 -10 -10 -10 -10 -10 -10 -10 -10 -11 -11 -11 -11 -11 -12 -12 -12 -12 -11 -11 -11 -11 -11 -11 -11 -11 -12 -12 -12 -13 -13 -13 -13 -13 -14 -13 -15 -16 -18 -19 -21 -21 -20
-11 -11 -11 -11 -11 -11 -10 -11 -11 -11 -11 -11 -11 -11 -12 -12 -12 -12 -12 -12 -12 -12 -12 -11 -11 -11 -11 -11 -12 -12 -13 -13 -13 -13 -14 -13 -14 -15 -17 -19 -20 -21 -21 -20
-12 -12 -11 -11 -11 -11 -11 -11 -11 -11 -11 -11 -12 -12 -12 -12 -12 -12 -12 -12 -12 -12 -12 -12 -12 -12 -12 -12 -12 -12 -12 -13 -13 -13 -13 -13 -14 -15 -17 -19 -20 -20 -20 -20
-12 -12 -12 -12 -12 -12 -12 -12 -12 -12 -12 -11 -12 -12 -12 -13 -13 -12 -13 -13 -12 -12 -12 -12 -12 -12 -12 -12 -12 -12 -12 -13 -13 -13 -13 -14 -14 -15 -18 -19 -19 -19 -18 -19
-13 -13 -13 -12 -12 -13 -13 -13 -13 -12 -12 -12 -12 -12 -13 -13 -13 -13 -13 -13 -13 -13 -13 -12 -12 -12 -12 -12 -12 -12 -12 -13 -13 -13 -13 -14 -14 -15 -16 -16 -17 -17 -18 -18
-14 -13 -13 -13 -13 -13 -13 -13 -13 -13 -12 -12 -12 -12 -13 -13 -13 -13 -14 -13 -13 -13 -13 -13 -13 -13 -12 -12 -12 -12 -13 -13 -13 -13 -13 -13 -14 -15 -16 -16 -16 -17 -17 -17
-15 -14 -14 -14 -13 -13 -13 -13 -14 -13 -13 -12 -12 -12 -13 -13 -13 -13 -14 -14 -13 -13 -13 -13 -13 -13 -13 -13 -12 -12 -13 -13 -13 -13 -13 -13 -13 -15 -14 -15 -16 -16 -17 -17
-15 -15 -14 -14 -14 -14 -13 -13 -13 -13 -13 -12 -12 -12 -14 -14 -13 -13 -14 -14 -14 -14 -14 -13 -13 -13 -13 -13 -13 -13 -13 -13 -13 -13 -13 -13 -13 -13 -14 -14 -15 -15 -15 -15
-15 -15 -15 -14 -14 -14 -14 -13 -13 -13 -13 -12 -12 -12 -14 -14 -14 -14 -14 -14 -14 -14 -14 -13 -13 -13 -13 -13 -13 -13 -13 -13 -13 -13 -13 -13 -13 -13 -14 -14 -14 -14 -15 -15
-16 -16 -15 -15 -15 -15 -15 -14 -14 -14 -13 -13 -12 -13 -15 -16 -16 -15 -15 -15 -15 -15 -14 -14 -14 -14 -14 -13 -13 -13 -13 -13 -14 -13 -13 -13 -13 -13 -13 -13 -13 -14 -14 -14
-17 -16 -16 -16 -15 -15 -15 -15 -15 -15 -14 -13 -13 -13 -15 -16 -17 -16 -15 -15 -15 -15 -15 -15 -14 -14 -14 -14 -13 -13 -13 -13 -14 -14 -13 -13 -13 -14 -13 -13 -13 -13 -14 -14
-18 -17 -17 -17 -16 -16 -16 -16 -16 -15 -14 -14 -13 -14 -14 -15 -16 -16 -15 -15 -15 -16 -16 -15 -14 -14 -14 -14 -14 -14 -13 -13 -14 -14 -13 -13 -13 -13 -14 -14 -13 -13 -14 -13
-19 -18 -18 -17 -17 -17 -16 -16 -16 -16 -15 -15 -15 -14 -15 -15 -16 -15 -16 -16 -15 -16 -16 -16 -14 -14 -14 -14 -14 -14 -14 -14 -14 -14 -14 -13 -13 -13 -14 -14 -14 -14 -14 -14
-19 -19 -19 -19 -18 -18 -17 -17 -16 -16 -16 -16 -16 -15 -16 -16 -15 -16 -16 -16 -16 -16 -15 -15 -15 -15 -15 -15 -15 -15 -14 -14 -14 -14 -14 -14 -14 -13 -13 -14 -14 -14 -14 -14
-20 -20 -20 -20 -19 -19 -18 -17 -18 -18 -18 -18 -16 -16 -15 -16 -16 -15 -15 -15 -15 -15 -15 -15 -15 -15 -15 -15 -15 -15 -15 -14 -14 -14 -14 -14 -14 -14 -13 -13 -14 -14 -14 -14
-21 -20 -21 -20 -20 -19 -18 -18 -19 -19 -19 -18 -18 -17 -16 -17 -16 -16 -15 -15 -15 -15 -15 -15 -16 -16 -16 -15 -15 -15 -15 -15 -15 -14 -14 -14 -14 -14 -14 -13 -13 -14 -14 -15
-22 -22 -22 -21 -21 -20 -20 -20 -20 -20 -20 -19 -19 -18 -18 -17 -18 -17 -16 -16 -16 -16 -15 -16 -16 -16 -16 -16 -16 -16 -15 -15 -15 -15 -15 -15 -15 -14 -14 -14 -13 -13 -14 -15
-21 -22 -22 -21 -21 -20 -21 -21 -20 -20 -20 -20 -20 -19 -19 -19 -18 -18 -18 -17 -17 -17 -16 -16 -16 -16 -16 -16 -16 -16 -16 -16 -15 -15 -15 -15 -15 -15 -14 -14 -14 -13 -14 -14
-21 -21 -21 -21 -21 -20 -21 -20 -20 -20 -20 -20 -19 -19 -19 -19 -19 -19 -19 -18 -18 -17 -16 -16 -16 -16 -16 -16 -16 -16 -16 -15 -15 -15 -15 -15 -15 -15 -15 -15 -14 -14 -14 -14
-21 -21 -21 -21 -20 -19 -20 -21 -21 -21 -21 -20 -20 -19 -19 -19 -19 -19 -19 -19 -18 -18 -17 -16 -16 -16 -16 -16 -16 -16 -16 -16 -16 -15 -15 -15 -15 -15 -15 -15 -15 -15 -14 -14
-20 -21 -21 -21 -21 -21 -21 -21 -20 -20 -20 -20 -20 -20 -20 -20 -20 -19 -19 -19 -19 -18 -17 -17 -17 -16 -16 -16 -16 -16 -16 -16 -16 -16 -16 -15 -15 -15 -16 -15 -15 -15 -15 -15
-21 -21 -21 -21 -21 -21 -21 -20 -20 -20 -20 -20 -20 -20 -20 -20 -20 -20 -20 -19 -19 -19 -18 -18 -18 -17 -17 -17 -17 -17 -16 -16 -16 -16 -16 -16 -16 -16 -16 -16 -16 -16 -15 -15
-21 -21 -20 -20 -20 -20 -21 -20 -20 -20 -20 -20 -20 -20 -20 -20 -20 -20 -20 -20 -20 -20 -19 -18 -19 -18 -18 -17 -17 -17 -16 -16 -16 -16 -16 -16 -16 -16 -16 -16 -16 -16 -16 -16
-21 -21 -21 -21 -21 -21 -21 -21 -21 -21 -20 -20 -20 -20 -19 -19 -20 -20 -20 -20 -20 -20 -19 -19 -18 -18 -19 -18 -18 -17 -17 -17 -17 -16 -16 -16 -17 -16 -16 -16 -16 -16 -16 -16
Height
5765 5768 5773 5771 5773 5774 5775 5776 5776 5775 5772 5772 5773 5778 5776 5771 5768 5769 5768 5766 5763 5761 5759 5758 5757 5756 5754 5751 5748 5745 5740 5735 5728 5723 5717 5709 5701 5690 5677 5664 5652 5638 5626 5614
5757 5761 5761 5764 5766 5767 5767 5768 5769 5768 5765 5764 5766 5773 5769 5767 5766 5765 5763 5761 5759 5757 5755 5754 5753 5752 5750 5747 5744 5740 5736 5730 5725 5719 5712 5704 5694 5681 5668 5654 5640 5628 5615 5609
5748 5752 5754 5756 5757 5759 5760 5760 5761 5760 5758 5757 5758 5765 5766 5763 5761 5760 5759 5756 5755 5753 5752 5750 5749 5748 5745 5743 5739 5736 5731 5726 5721 5716 5708 5699 5686 5674 5659 5646 5633 5620 5614 5611
5739 5742 5745 5748 5749 5750 5752 5752 5752 5752 5751 5751 5753 5754 5762 5758 5757 5756 5754 5752 5751 5750 5748 5746 5745 5743 5741 5739 5735 5733 5729 5724 5719 5713 5705 5694 5682 5669 5654 5642 5631 5620 5617 5614
5730 5732 5735 5738 5741 5742 5744 5744 5744 5744 5743 5742 5747 5745 5757 5755 5753 5751 5750 5748 5747 5746 5744 5742 5741 5740 5738 5736 5733 5729 5726 5722 5717 5711 5703 5692 5681 5666 5652 5643 5634 5628 5623 5620
5718 5721 5725 5728 5730 5731 5733 5735 5736 5735 5735 5734 5742 5741 5749 5748 5749 5747 5745 5744 5744 5743 5740 5739 5738 5737 5734 5733 5730 5727 5723 5720 5716 5710 5701 5692 5682 5667 5654 5646 5640 5635 5631 5628
5708 5710 5714 5716 5719 5722 5724 5726 5726 5727 5728 5729 5732 5734 5741 5743 5744 5741 5740 5740 5740 5739 5737 5736 5735 5734 5732 5730 5727 5724 5721 5718 5714 5709 5701 5693 5686 5672 5661 5655 5649 5645 5641 5639
5695 5699 5702 5706 5709 5713 5714 5717 5719 5718 5721 5722 5724 5725 5733 5737 5737 5735 5734 5735 5735 5735 5734 5733 5732 5730 5728 5726 5724 5721 5719 5716 5713 5708 5702 5696 5690 5680 5673 5666 5660 5655 5652 5649
5684 5687 5691 5696 5699 5702 5705 5708 5712 5712 5712 5714 5716 5719 5725 5730 5729 5728 5728 5729 5729 5729 5730 5729 5728 5727 5725 5723 5722 5718 5717 5715 5712 5708 5702 5698 5694 5685 5681 5676 5670 5666 5662 5657
5674 5678 5682 5686 5688 5692 5696 5700 5701 5703 5705 5706 5707 5710 5715 5720 5722 5723 5723 5723 5723 5724 5726 5725 5725 5723 5722 5720 5719 5716 5715 5714 5711 5707 5701 5698 5696 5688 5684 5681 5677 5672 5668 5664
5665 5669 5673 5676 5679 5682 5686 5688 5691 5695 5697 5698 5701 5704 5704 5707 5715 5716 5717 5717 5717 5718 5720 5721 5720 5719 5719 5717 5716 5713 5712 5712 5710 5706 5701 5697 5697 5692 5687 5685 5681 5678 5674 5670
5654 5656 5659 5665 5668 5671 5675 5679 5681 5684 5690 5692 5693 5696 5697 5699 5703 5707 5708 5709 5709 5711 5713 5715 5715 5715 5715 5714 5713 5711 5709 5709 5708 5706 5701 5697 5696 5694 5689 5686 5686 5682 5678 5675
5642 5645 5649 5653 5658 5661 5666 5669 5671 5674 5678 5681 5683 5689 5693 5693 5693 5697 5699 5700 5702 5703 5705 5708 5708 5709 5709 5709 5709 5708 5707 5707 5705 5704 5700 5697 5695 5694 5692 5688 5686 5684 5681 5677
5629 5633 5638 5642 5645 5651 5655 5659 5661 5663 5665 5672 5676 5681 5686 5683 5680 5683 5689 5691 5693 5695 5695 5698 5700 5702 5704 5704 5703 5704 5703 5703 5702 5702 5699 5697 5694 5692 5691 5689 5688 5684 5683 5682
5617 5622 5626 5630 5633 5638 5642 5646 5650 5653 5656 5658 5666 5670 5675 5672 5668 5673 5678 5680 5682 5684 5685 5687 5693 5695 5697 5698 5697 5698 5699 5698 5699 5699 5697 5696 5694 5691 5691 5689 5688 5685 5682 5682
5604 5610 5613 5617 5622 5626 5630 5636 5639 5643 5646 5648 5651 5657 5658 5656 5657 5663 5664 5666 5672 5674 5677 5678 5683 5687 5689 5692 5692 5693 5693 5693 5695 5695 5695 5693 5692 5691 5690 5689 5689 5687 5685 5683
5593 5598 5602 5606 5611 5614 5622 5629 5629 5630 5632 5634 5638 5645 5643 5647 5647 5652 5656 5660 5663 5667 5668 5670 5673 5679 5682 5685 5688 5688 5689 5688 5690 5691 5691 5691 5690 5689 5688 5688 5687 5687 5686 5684
5582 5587 5591 5596 5600 5603 5614 5614 5617 5619 5620 5622 5628 5632 5634 5635 5636 5640 5644 5649 5654 5656 5659 5661 5663 5670 5672 5676 5679 5681 5682 5683 5684 5686 5686 5687 5687 5687 5686 5687 5686 5685 5685 5685
5575 5579 5583 5587 5592 5598 5601 5602 5604 5608 5611 5614 5618 5622 5624 5625 5626 5631 5634 5637 5642 5647 5650 5652 5655 5659 5662 5666 5669 5672 5674 5677 5678 5680 5681 5682 5684 5684 5684 5684 5685 5684 5683 5684
5567 5571 5575 5577 5581 5586 5590 5592 5592 5599 5602 5606 5609 5612 5616 5617 5618 5622 5625 5626 5630 5635 5638 5641 5645 5648 5652 5654 5658 5662 5665 5669 5669 5672 5675 5677 5679 5680 5681 5681 5682 5683 5683 5682
5558 5561 5564 5569 5570 5574 5577 5582 5585 5590 5595 5596 5600 5603 5606 5609 5611 5614 5617 5618 5619 5621 5625 5629 5633 5636 5639 5643 5647 5652 5656 5659 5661 5664 5668 5671 5673 5675 5677 5678 5679 5680 5682 5682
5549 5552 5555 5558 5560 5563 5572 5573 5575 5577 5579 5583 5585 5589 5593 5597 5600 5603 5606 5610 5611 5612 5613 5615 5618 5624 5627 5631 5636 5641 5646 5647 5653 5657 5660 5663 5666 5669 5671 5673 5674 5677 5677 5680
5539 5544 5546 5549 5551 5556 5558 5561 5563 5565 5569 5572 5574 5577 5579 5582 5586 5590 5594 5599 5603 5605 5606 5606 5607 5610 5615 5619 5623 5628 5633 5636 5643 5648 5650 5654 5658 5661 5665 5668 5669 5671 5674 5674
5526 5531 5533 5537 5541 5545 5548 5551 5553 5556 5559 5562 5564 5567 5569 5571 5574 5577 5581 5585 5590 5594 5597 5597 5597 5599 5603 5608 5611 5616 5621 5626 5634 5638 5641 5645 5650 5653 5657 5661 5663 5666 5668 5670
5515 5519 5523 5526 5530 5534 5537 5541 5543 5545 5548 5553 5556 5557 5559 5560 5562 5565 5569 5572 5577 5581 5585 5587 5589 5590 5592 5596 5600 5605 5610 5616 5622 5626 5631 5635 5640 5644 5648 5653 5656 5659 5662 5664
5503 5509 5512 5517 5520 5522 5526 5529 5532 5535 5539 5542 5544 5547 5549 5551 5553 5556 5558 5560 5564 5569 5574 5577 5579 5582 5584 5585 5588 5593 5598 5604 5610 5616 5619 5623 5629 5634 5638 5643 5648 5651 5655 5658
Wind_Speed
42 41 35 38 39 39 38 39 39 38 40 39 34 24 24 30 32 28 29 26 23 22 21 20 21 21 23 23 24 28 28 27 31 34 37 41 45 51 58 52 58 52 51 49
45 41 41 40 40 42 42 42 42 43 41 41 35 25 25 26 29 29 27 25 21 21 21 21 21 21 23 22 23 27 27 27 31 34 38 41 48 54 52 57 49 47 39 16
46 45 44 44 44 44 46 46 46 46 43 41 37 29 23 26 28 27 25 23 21 21 20 20 20 21 23 22 23 26 25 27 30 33 38 44 51 52 54 45 42 32 16 15
51 50 48 47 46 48 49 48 48 46 43 40 37 36 20 24 26 26 24 22 20 19 17 17 19 20 22 21 22 26 24 26 29 33 38 46 49 49 48 39 32 27 9 12
53 52 51 51 49 49 49 47 46 43 43 42 36 39 18 20 25 25 23 19 18 17 16 17 19 19 21 20 21 23 23 24 28 32 39 42 42 50 42 34 26 27 20 17
54 54 53 50 47 47 45 44 44 43 42 45 36 37 23 21 21 23 21 20 18 16 16 17 18 18 19 19 20 21 21 22 26 31 36 33 44 49 35 31 27 28 27 20
50 49 48 46 46 46 44 43 43 43 42 44 39 37 27 21 20 23 22 20 20 18 16 17 17 18 18 18 20 20 19 20 23 28 28 29 42 46 35 28 28 27 22 23
45 44 45 47 47 45 44 42 41 43 42 42 42 40 30 22 22 23 24 22 22 20 18 17 17 17 18 18 18 18 17 18 20 25 24 29 33 37 29 26 27 23 22 24
44 46 47 45 44 44 44 44 40 41 44 44 42 38 30 22 25 25 25 24 24 22 20 19 19 18 18 16 17 17 15 15 17 21 24 22 26 27 24 25 24 18 16 17
40 42 44 42 45 42 43 44 45 43 42 42 42 39 35 27 25 24 24 23 23 23 22 20 19 19 18 16 15 16 13 13 13 16 21 19 16 21 25 23 22 19 18 16
43 44 43 41 43 44 43 38 43 45 45 44 42 42 40 34 25 26 25 26 26 24 23 23 21 19 18 18 15 14 13 11 10 12 16 17 10 14 20 28 25 22 26 25
44 45 45 46 47 45 45 44 41 39 43 44 44 44 37 32 17 25 30 33 31 27 23 26 24 21 20 19 15 14 13 9 8 8 12 15 9 9 9 14 20 24 20 25
49 51 50 49 46 46 45 45 46 46 43 39 41 43 39 35 26 26 30 34 33 33 31 29 30 25 22 18 17 14 14 10 7 5 8 10 12 6 6 6 8 11 15 22
50 50 51 51 51 49 46 44 43 45 48 47 48 43 38 40 40 40 37 37 35 34 34 31 29 26 23 19 18 16 15 12 9 5 4 7 9 9 9 9 6 7 8 13
51 49 51 50 51 51 50 49 48 47 45 45 42 40 34 35 35 37 37 37 39 39 38 36 29 26 24 22 21 18 17 15 11 7 5 4 6 9 6 7 1 4 5 8
48 42 47 51 52 52 50 48 49 47 45 46 45 45 40 40 42 32 33 43 42 41 41 42 35 29 29 24 23 21 18 17 14 12 8 6 6 6 10 6 4 3 4 6
43 48 50 50 47 49 51 46 43 43 43 43 45 43 47 43 46 43 36 31 35 44 44 45 42 33 33 31 27 25 21 19 17 15 11 10 7 7 5 10 6 4 4 2
37 37 38 40 41 45 42 43 39 38 40 40 41 40 42 41 40 39 38 38 32 31 42 47 46 38 34 32 27 26 24 21 19 19 16 13 10 8 4 4 8 6 3 5
38 36 37 38 38 36 37 40 39 37 35 33 31 34 37 39 32 33 33 29 30 32 31 40 46 41 39 37 33 28 26 24 22 22 19 17 14 12 9 4 3 4 3 4
45 44 43 44 41 39 39 40 41 41 36 34 34 34 31 30 27 22 24 24 27 32 35 33 34 34 40 40 37 32 31 27 26 24 22 20 18 15 14 9 6 3 1 2
37 38 37 37 41 43 44 42 43 46 45 44 43 42 39 33 31 27 20 20 22 29 35 40 39 40 41 43 37 35 34 31 32 26 25 24 23 18 17 15 11 9 7 5
36 38 36 35 37 35 29 32 35 34 36 37 39 44 48 47 46 41 34 31 24 25 32 39 41 42 43 42 41 37 36 36 31 29 27 27 26 24 20 19 17 14 12 11
37 35 36 37 37 34 34 33 33 33 33 32 33 36 40 43 45 48 47 41 35 31 29 35 41 45 45 45 44 40 40 40 30 32 31 31 30 28 24 22 21 19 17 15
40 39 40 39 39 37 37 36 35 34 32 31 32 32 33 38 41 44 46 45 41 37 34 32 34 41 44 46 46 43 41 40 36 34 35 34 34 32 30 27 24 23 22 19
44 43 42 41 40 39 39 38 38 38 35 31 29 29 29 31 32 34 40 43 44 40 39 41 32 28 36 42 45 49 45 42 39 37 38 38 37 36 33 31 29 26 25 23
47 46 45 43 41 42 41 41 40 39 36 34 33 32 32 32 31 30 31 36 44 46 43 45 46 34 33 30 37 45 48 49 46 42 41 42 40 40 37 34 33 29 27 26
Wind_Direction
248 251 256 255 262 269 277 283 289 290 287 285 282 290 289 292 297 301 308 310 299 298 292 290 292 291 296 301 307 312 313 317 320 325 323 322 325 324 324 318 318 317 315 318
249 252 253 258 264 269 273 280 286 285 283 282 279 282 288 289 291 295 304 308 300 298 294 291 291 292 298 303 308 313 313 323 327 330 326 330 332 332 326 324 324 325 332 343
249 251 253 258 262 268 274 278 280 281 277 277 277 276 284 287 288 294 304 307 302 299 295 290 291 295 300 303 309 314 317 326 333 333 333 338 338 338 332 333 336 342 357 8
251 252 255 258 263 268 272 275 277 275 274 272 273 279 285 288 285 289 298 302 302 302 297 293 295 297 301 302 313 318 324 331 337 338 341 347 345 342 342 346 359 6 34 21
254 256 258 262 265 269 270 269 270 269 269 269 271 276 280 277 277 283 292 298 300 298 300 298 299 301 300 307 317 321 328 336 342 346 351 353 355 351 1 9 17 32 51 48
254 256 258 259 262 262 263 263 264 263 264 268 271 273 279 278 276 279 288 291 291 296 298 303 305 302 302 311 318 322 332 341 348 352 358 3 7 6 18 26 38 45 49 51
252 253 254 255 256 256 258 259 259 261 262 266 269 269 279 277 277 277 284 285 284 288 292 302 312 306 305 313 319 324 334 347 353 0 6 8 13 24 45 53 52 63 71 67
248 249 251 252 254 254 252 252 255 260 262 264 268 272 276 270 272 270 277 280 280 281 284 293 305 311 307 311 318 322 332 348 358 6 9 6 17 38 50 59 54 70 70 70
253 250 250 250 252 251 250 251 253 256 260 264 268 272 274 263 261 263 273 275 276 279 278 285 294 302 305 311 314 318 327 345 0 9 11 17 23 40 41 35 37 50 44 31
252 254 252 251 251 250 251 254 249 251 256 258 265 272 273 261 259 261 267 272 274 277 277 279 288 295 302 306 309 314 318 338 358 12 13 21 21 29 35 32 26 33 47 44
250 252 253 252 251 253 251 251 251 251 250 254 262 267 274 273 257 256 260 263 267 271 273 273 277 291 297 298 300 304 305 326 351 10 17 16 7 27 36 41 31 29 39 33
249 252 253 253 251 251 253 253 253 254 253 253 256 259 266 272 259 247 248 258 260 266 266 267 272 284 290 292 293 298 293 309 334 1 13 11 7 8 19 20 27 44 16 30
246 248 252 253 253 253 252 254 255 254 253 251 253 256 255 259 243 229 249 249 258 265 264 263 269 274 277 283 288 290 285 289 307 337 3 8 358 307 336 352 355 4 10 22
244 245 247 249 251 251 253 253 253 255 256 257 258 262 263 268 251 247 256 243 248 257 261 260 262 268 274 277 278 279 277 274 284 299 327 355 355 344 310 302 316 2 11 6
244 244 245 246 250 251 251 251 253 255 258 257 260 257 261 260 256 258 247 235 241 247 254 258 259 262 267 272 274 268 267 264 266 271 271 316 336 355 323 322 261 71 58 36
241 236 243 244 245 247 249 252 254 255 256 258 257 251 256 257 258 260 247 244 239 242 249 256 256 255 261 265 275 262 259 258 254 257 256 251 294 323 352 312 228 311 94 89
240 240 244 246 248 250 250 253 256 255 255 254 254 252 250 254 259 258 260 258 251 247 246 251 256 257 262 263 268 264 257 254 249 248 247 244 249 286 335 345 293 255 247 273
238 241 243 245 245 248 250 249 249 254 254 255 253 251 253 258 257 257 258 257 259 250 249 247 253 253 255 257 256 255 253 252 248 245 241 243 232 250 274 324 338 287 229 237
231 231 241 244 245 245 243 247 250 247 247 248 251 249 248 253 258 256 256 255 251 254 251 249 250 250 249 254 250 248 252 247 247 243 239 240 236 231 243 241 297 341 272 222
235 241 244 245 246 247 242 245 252 252 255 254 255 251 247 247 256 257 254 249 241 241 242 240 244 249 249 248 247 241 247 241 240 239 238 237 240 230 229 229 232 232 345 63
243 245 246 246 248 250 253 257 256 255 258 260 258 257 256 255 255 256 261 254 242 236 233 239 245 247 246 245 244 239 242 240 235 233 234 237 238 234 228 224 222 223 215 212
246 248 248 250 250 251 256 258 258 257 255 254 254 253 254 255 255 256 259 256 258 249 238 230 233 240 243 243 245 237 237 235 230 229 230 233 234 236 230 229 222 220 218 221
245 249 250 250 253 254 253 252 252 251 252 251 248 245 249 250 249 249 254 254 248 251 252 239 236 233 238 244 244 240 237 234 225 227 227 229 233 232 231 229 227 220 220 220
243 244 247 248 251 252 254 255 256 256 255 253 254 254 251 253 251 249 250 250 244 238 244 243 244 238 237 241 240 243 238 239 229 233 226 227 229 230 231 229 229 224 225 222
242 244 246 247 249 251 253 255 255 256 257 255 253 253 254 255 255 252 248 247 247 239 237 243 243 245 239 240 243 242 242 242 234 231 241 223 226 229 228 231 229 230 228 224
243 246 247 248 247 250 251 252 254 256 257 258 255 254 256 257 258 257 255 250 244 242 235 239 247 246 250 251 245 242 242 243 244 238 240 233 223 227 227 229 232 231 232 231